TimeCDT,TemperatureF,Dew PointF,Humidity,Sea Level PressureIn,VisibilityMPH,Wind Direction,Wind SpeedMPH,Gust SpeedMPH,PrecipitationIn,Events,Conditions,WindDirDegrees,DateUTC
12:13 AM,69.8,62.6,78,29.89,10.0,Calm,Calm,-,N/A,,Clear,0,2013-06-27 05:13:00
12:32 AM,69.8,64.4,83,29.89,10.0,Calm,Calm,-,N/A,,Clear,0,2013-06-27 05:32:00
12:52 AM,69.8,62.6,78,29.89,10.0,Calm,Calm,-,N/A,,Clear,0,2013-06-27 05:52:00
1:13 AM,69.8,64.4,83,29.89,10.0,Calm,Calm,-,N/A,,Clear,0,2013-06-27 06:13:00
1:32 AM,71.6,62.6,73,29.88,10.0,Calm,Calm,-,N/A,,Clear,0,2013-06-27 06:32:00
1:52 AM,69.8,62.6,78,29.88,10.0,Calm,Calm,-,N/A,,Clear,0,2013-06-27 06:52:00
2:13 AM,71.6,62.6,73,29.87,10.0,South,3.5,-,N/A,,Clear,190,2013-06-27 07:13:00
2:32 AM,69.8,62.6,78,29.87,10.0,Calm,Calm,-,N/A,,Clear,0,2013-06-27 07:32:00
2:52 AM,69.8,62.6,78,29.88,10.0,Calm,Calm,-,N/A,,Clear,0,2013-06-27 07:52:00
3:13 AM,69.8,62.6,78,29.88,10.0,Calm,Calm,-,N/A,,Clear,0,2013-06-27 08:13:00
3:32 AM,69.8,62.6,78,29.88,10.0,SSW,3.5,-,N/A,,Clear,200,2013-06-27 08:32:00
3:52 AM,69.8,62.6,78,29.88,10.0,SSW,3.5,-,N/A,,Clear,210,2013-06-27 08:52:00
4:13 AM,69.8,62.6,78,29.88,10.0,SSW,5.8,-,N/A,,Clear,210,2013-06-27 09:13:00
4:32 AM,69.8,62.6,78,29.88,10.0,SSW,6.9,-,N/A,,Clear,210,2013-06-27 09:32:00
4:52 AM,69.8,62.6,78,29.88,10.0,SW,4.6,-,N/A,,Clear,230,2013-06-27 09:52:00
5:13 AM,69.8,62.6,78,29.88,10.0,SSW,6.9,-,N/A,,Clear,210,2013-06-27 10:13:00
5:32 AM,71.6,60.8,69,29.89,10.0,West,8.1,-,N/A,,Clear,260,2013-06-27 10:32:00
5:52 AM,69.8,62.6,78,29.89,10.0,West,5.8,-,N/A,,Clear,270,2013-06-27 10:52:00
6:13 AM,69.8,62.6,78,29.89,10.0,West,8.1,-,N/A,,Clear,280,2013-06-27 11:13:00
6:32 AM,69.8,62.6,78,29.90,10.0,West,5.8,-,N/A,,Clear,260,2013-06-27 11:32:00
6:52 AM,71.6,62.6,73,29.91,10.0,West,5.8,-,N/A,,Clear,270,2013-06-27 11:52:00
7:13 AM,71.6,62.6,73,29.91,10.0,West,5.8,-,N/A,,Clear,280,2013-06-27 12:13:00
7:32 AM,73.4,64.4,73,29.91,10.0,WNW,8.1,-,N/A,,Clear,290,2013-06-27 12:32:00
7:52 AM,75.2,64.4,69,29.91,10.0,WNW,6.9,-,N/A,,Clear,300,2013-06-27 12:52:00
8:12 AM,75.2,64.4,69,29.91,10.0,NW,8.1,-,N/A,,Clear,310,2013-06-27 13:12:00
8:32 AM,77.0,62.6,61,29.91,10.0,NW,8.1,-,N/A,,Clear,310,2013-06-27 13:32:00
8:53 AM,75.2,60.8,61,29.91,10.0,WNW,9.2,-,N/A,,Clear,300,2013-06-27 13:53:00
9:12 AM,80.6,60.8,51,29.92,10.0,WNW,10.4,-,N/A,,Clear,290,2013-06-27 14:12:00
9:32 AM,78.8,57.2,47,29.92,10.0,NW,11.5,-,N/A,,Clear,320,2013-06-27 14:32:00
9:53 AM,80.6,57.2,45,29.92,10.0,NW,12.7,-,N/A,,Clear,320,2013-06-27 14:53:00
10:12 AM,80.6,55.4,42,29.92,10.0,WNW,11.5,21.9,N/A,,Clear,300,2013-06-27 15:12:00
10:32 AM,80.6,55.4,42,29.92,10.0,WNW,15.0,19.6,N/A,,Clear,300,2013-06-27 15:32:00
10:53 AM,78.8,55.4,44,29.93,10.0,NW,12.7,-,N/A,,Clear,310,2013-06-27 15:53:00
11:12 AM,80.6,55.4,42,29.94,10.0,WNW,12.7,19.6,N/A,,Clear,290,2013-06-27 16:12:00
11:32 AM,82.4,55.4,39,29.94,10.0,NW,11.5,19.6,N/A,,Clear,310,2013-06-27 16:32:00
11:53 AM,82.4,55.4,39,29.94,10.0,NW,16.1,23.0,N/A,,Clear,310,2013-06-27 16:53:00
12:12 PM,82.4,53.6,37,29.95,10.0,WNW,16.1,24.2,N/A,,Clear,300,2013-06-27 17:12:00
12:32 PM,82.4,55.4,39,29.95,10.0,NW,16.1,23.0,N/A,,Clear,320,2013-06-27 17:32:00
12:53 PM,82.4,53.6,37,29.95,10.0,NW,15.0,20.7,N/A,,Clear,310,2013-06-27 17:53:00
1:12 PM,84.2,51.8,33,29.95,10.0,NW,13.8,-,N/A,,Clear,310,2013-06-27 18:12:00
1:32 PM,82.4,53.6,37,29.94,10.0,NW,16.1,24.2,N/A,,Clear,310,2013-06-27 18:32:00
1:53 PM,84.2,51.8,33,29.94,10.0,NW,18.4,24.2,N/A,,Clear,310,2013-06-27 18:53:00
2:12 PM,84.2,53.6,35,29.94,10.0,WNW,12.7,27.6,N/A,,Clear,300,2013-06-27 19:12:00
2:32 PM,84.2,53.6,35,29.94,10.0,NW,17.3,23.0,N/A,,Clear,320,2013-06-27 19:32:00
2:53 PM,84.2,51.8,33,29.93,10.0,West,21.9,28.8,N/A,,Clear,280,2013-06-27 19:53:00
3:12 PM,86.0,51.8,31,29.93,10.0,WNW,11.5,27.6,N/A,,Clear,290,2013-06-27 20:12:00
3:32 PM,84.2,50.0,30,29.92,10.0,WNW,19.6,28.8,N/A,,Clear,290,2013-06-27 20:32:00
3:53 PM,86.0,51.8,31,29.92,10.0,West,23.0,26.5,N/A,,Clear,280,2013-06-27 20:53:00
4:12 PM,84.2,50.0,30,29.92,10.0,WNW,16.1,29.9,N/A,,Clear,300,2013-06-27 21:12:00
4:32 PM,86.0,48.2,27,29.92,10.0,NW,19.6,27.6,N/A,,Clear,310,2013-06-27 21:32:00
4:53 PM,84.2,50.0,30,29.91,10.0,WNW,18.4,29.9,N/A,,Clear,300,2013-06-27 21:53:00
5:13 PM,84.2,50.0,30,29.91,10.0,WNW,23.0,33.4,N/A,,Clear,300,2013-06-27 22:13:00
5:32 PM,84.2,50.0,30,29.91,10.0,WNW,24.2,28.8,N/A,,Clear,300,2013-06-27 22:32:00
5:52 PM,84.2,48.2,29,29.91,10.0,WNW,23.0,31.1,N/A,,Clear,300,2013-06-27 22:52:00
6:12 PM,84.2,50.0,30,29.90,10.0,NW,25.3,29.9,N/A,,Clear,320,2013-06-27 23:12:00
6:32 PM,84.2,50.0,30,29.91,10.0,NW,21.9,28.8,N/A,,Clear,310,2013-06-27 23:32:00
6:52 PM,82.4,51.8,35,29.91,10.0,NW,20.7,27.6,N/A,,Clear,320,2013-06-27 23:52:00
7:13 PM,82.4,51.8,35,29.90,10.0,NW,13.8,24.2,N/A,,Clear,320,2013-06-28 00:13:00
7:32 PM,82.4,53.6,37,29.90,10.0,NW,12.7,21.9,N/A,,Clear,310,2013-06-28 00:32:00
7:52 PM,82.4,53.6,37,29.90,10.0,NW,11.5,-,N/A,,Clear,310,2013-06-28 00:52:00
8:13 PM,82.4,55.4,39,29.89,10.0,NW,8.1,-,N/A,,Clear,310,2013-06-28 01:13:00
8:33 PM,80.6,55.4,42,29.89,10.0,NW,5.8,-,N/A,,Clear,310,2013-06-28 01:33:00
8:52 PM,78.8,57.2,47,29.88,10.0,WNW,3.5,-,N/A,,Clear,300,2013-06-28 01:52:00
9:13 PM,75.2,57.2,53,29.88,10.0,Calm,Calm,-,N/A,,Clear,0,2013-06-28 02:13:00
9:33 PM,75.2,57.2,53,29.88,10.0,WNW,3.5,-,N/A,,Clear,300,2013-06-28 02:33:00
9:52 PM,73.4,57.2,57,29.89,10.0,West,5.8,-,N/A,,Clear,280,2013-06-28 02:52:00
10:13 PM,73.4,60.8,65,29.89,10.0,West,4.6,-,N/A,,Clear,270,2013-06-28 03:13:00
10:33 PM,71.6,59.0,64,29.90,10.0,WNW,5.8,-,N/A,,Clear,290,2013-06-28 03:33:00
10:52 PM,73.4,57.2,57,29.90,10.0,WNW,6.9,-,N/A,,Clear,300,2013-06-28 03:52:00
11:12 PM,73.4,57.2,57,29.90,10.0,WNW,8.1,-,N/A,,Clear,300,2013-06-28 04:12:00
11:33 PM,71.6,57.2,60,29.90,10.0,WNW,9.2,-,N/A,,Clear,290,2013-06-28 04:33:00
11:52 PM,73.4,53.6,50,29.91,10.0,WNW,9.2,-,N/A,,Clear,300,2013-06-28 04:52:00